Regional Weather Roundup
Issued by NWS

Home | Current Version | Previous Version | Graphics & Text | Print | Product List | Glossary On
Versions: 1 2 3 4 5 6 7 8 9 10 11 12 13 14 15 16 17 18 19 20 21 22 23 24 25 26 27 28 29 30 31 32 33 34 35 36 37 38 39 40 41 42 43 44 45 46 47 48 49 50
060
ASUS45 KCYS 220110
RWRWY

WYOMING REGIONAL WEATHER ROUNDUP
NATIONAL WEATHER SERVICE CHEYENNE WY
700 PM MDT THU SEP 21 2017

NOTE:  "FAIR" INDICATES FEW OR NO CLOUDS BELOW 12,000 FEET
WITH NO SIGNIFICANT WEATHER AND/OR OBSTRUCTIONS TO VISIBILITY.

WYZ001-220200-
YELLOWSTONE NATIONAL PARK

CITY           SKY/WX    TMP DP  RH WIND       PRES   REMARKS
LK YELLOWSTONE NOT AVBL
W YELLOWSTONE  NOT AVBL

$$
WYZ002>013-054>058-071-098>099-220200-
NORTHERN WYOMING

CITY           SKY/WX    TMP DP  RH WIND       PRES   REMARKS
JACKSON        CLOUDY    39  37  92 N8        29.77F WCI  33
CODY           LGT RAIN  40  37  89 N14       29.86S WCI  32
GREYBULL       CLOUDY    48  41  76 NW21      29.79S
WORLAND        CLOUDY    49  41  74 NW14      29.80R
SHERIDAN       CLOUDY    47  41  80 NW14      29.89R
BUFFALO        MOCLDY    47  38  71 N15       29.87R
GILLETTE       FAIR      56  39  53 N18       29.80R
HULETT         FAIR      59  41  51 N12G17    29.81R
NEWCASTLE      FAIR      72  36  26 E14G23    29.67R

$$
WYZ014>020-022>026-101>103-220200-
CENTRAL WYOMING

CITY           SKY/WX    TMP DP  RH WIND       PRES   REMARKS
BIG PINEY      CLOUDY    50  45  83 NW6       29.70F
PINEDALE       DRIZZLE   50  43  76 NW6       29.72S
DUBOIS         RAIN      45  43  93 NW9       29.76R
LANDER           N/A    N/A N/A N/A MISG      29.73R
RIVERTON       CLOUDY    49  39  68 N20       29.71R
CASPER         FAIR      60  38  43 N18G29    29.74R
DOUGLAS        FAIR      71  35  26 NE25G31   29.68R

$$
WYZ021-027>030-104>119-220200-
SOUTHERN WYOMING

CITY           SKY/WX    TMP DP  RH WIND       PRES   REMARKS
EVANSTON       CLOUDY    49  42  77 W13G26    29.71R
KEMMERER       LGT RAIN  48  43  81 CALM      29.71S
FORT BRIDGER   CLOUDY    56  45  68 W8        29.72R
ROCK SPRINGS   FAIR      65  21  18 S20G32    29.68R
DIXON          FAIR      71  17  12 S15G24    29.77S
RAWLINS        FAIR      69  19  15 S17G28    29.76R
SARATOGA       FAIR      64  21  19 SW12G20   29.79S
LARAMIE        FAIR      67  21  17 SE10      29.82R
CHEYENNE       FAIR      76  20  12 SE3       29.74F
TORRINGTON     FAIR      78  28  16 E17       29.61S
PINE BLUFFS    FAIR      73  25  16 SE5       29.69S

$$




USA.gov is the U.S. government's official web portal to all federal, state and local government web resources and services.